Jefferson, NC

9:46 AM EDT on July 28, 2017 (GMT -0400)
Ashe County

Weather History for KGEV - February, 2011

Change the Weather History Date:

Monday, February 28, 2011

  Actual Average Record
Temperature  
Mean Temperature 55 °F -  
Max Temperature 62 °F 48 °F 68 °F (1976)
Min Temperature 48 °F 27 °F 10 °F (2002)
Degree Days  
Heating Degree Days 10    
Growing Degree Days 5 (Base 50)    
Moisture  
Dew Point 49 °F    
Average Humidity 82    
Maximum Humidity 94    
Minimum Humidity 68    
Precipitation  
Precipitation 0.86 in - - ()
Sea Level Pressure  
Sea Level Pressure 29.86 in    
Wind  
Wind Speed 7 mph (SSW)    
Max Wind Speed 25 mph    
Max Gust Speed 39 mph    
Visibility 9 miles    
Events Rain    
Averages and records for this station are not official NWS values.
T = Trace of Precipitation, MM = Missing Value Source: NWS Daily Summary

Daily Weather History Graph

Daily Weather History Graph

Search for Another Location

Airport or City:

Trip Planner

Search our weather history database for the weather conditions in past years. The results will help you decide how hot, cold, wet, or windy it might be!

Date:

Astronomy

Feb. 28, 2011 Rise Set
Actual Time 6:57 AM EST 6:19 PM EST
Civil Twilight 6:31 AM EST 6:45 PM EST
Nautical Twilight 6:02 AM EST 7:14 PM EST
Astronomical Twilight 5:32 AM EST 7:44 PM EST
Moon 4:22 AM EST 2:39 PM EST
Length of Visible Light 12h 13m
Length of Day
11h 21m
Waning Crescent, 15% of the Moon is Illuminated
Feb 28
Waning Crescent
Mar 4
New
Mar 12
First Quarter
Mar 19
Full
Mar 26
Last Quarter

Hourly Weather History & Observations

Time (EST) Temp. Windchill Dew Point Humidity Pressure Visibility Wind Dir Wind Speed Gust Speed Precip Events Conditions
12:03 AM 55.4 °F - 50.0 °F 82% 29.97 in 10.0 mi South 6.9 mph - N/A   Clear
12:23 AM 55.4 °F - 50.0 °F 82% 29.97 in 10.0 mi SSE 4.6 mph - N/A   Clear
12:43 AM 57.2 °F - 50.0 °F 77% 29.97 in 10.0 mi South 4.6 mph - N/A   Clear
1:03 AM 57.2 °F - 50.0 °F 77% 29.96 in 10.0 mi South 5.8 mph - N/A   Clear
1:23 AM 57.2 °F - 50.0 °F 77% 29.95 in 10.0 mi South 6.9 mph 17.3 mph N/A   Clear
1:44 AM 57.2 °F - 50.0 °F 77% 29.94 in 10.0 mi South 6.9 mph - N/A   Clear
2:03 AM 57.2 °F - 50.0 °F 77% 29.94 in 10.0 mi SSE 4.6 mph - N/A   Clear
2:23 AM 57.2 °F - 50.0 °F 77% 29.92 in 10.0 mi SSE 6.9 mph - N/A   Clear
2:43 AM 55.4 °F - 50.0 °F 82% 29.91 in 10.0 mi South 5.8 mph - N/A   Clear
3:05 AM 55.4 °F - 50.0 °F 82% 29.89 in 10.0 mi SSE 3.5 mph - N/A   Clear
3:43 AM 55.4 °F - 50.0 °F 82% 29.85 in 10.0 mi South 6.9 mph - N/A   Clear
4:24 AM 55.4 °F - 50.0 °F 82% 29.83 in 10.0 mi South 12.7 mph 24.2 mph N/A   Clear
4:43 AM 55.4 °F - 50.0 °F 82% 29.85 in 10.0 mi South 8.1 mph - N/A   Clear
5:05 AM 57.2 °F - 50.0 °F 77% 29.87 in 10.0 mi South 6.9 mph - N/A   Scattered Clouds
6:03 AM 55.4 °F - 50.0 °F 82% 29.89 in 10.0 mi SSE 5.8 mph - N/A   Scattered Clouds
6:24 AM 55.4 °F - 50.0 °F 82% 29.89 in 10.0 mi South 3.5 mph - N/A   Scattered Clouds
6:43 AM 55.4 °F - 50.0 °F 82% 29.89 in 10.0 mi South 4.6 mph - N/A   Mostly Cloudy
7:03 AM 55.4 °F - 51.8 °F 88% 29.89 in 10.0 mi South 3.5 mph - N/A   Overcast
7:23 AM 55.4 °F - 51.8 °F 88% 29.89 in 10.0 mi South 3.5 mph - N/A   Overcast
7:44 AM 55.4 °F - 51.8 °F 88% 29.87 in 10.0 mi SSE 5.8 mph - N/A   Mostly Cloudy
8:03 AM 57.2 °F - 51.8 °F 82% 29.88 in 10.0 mi SSE 5.8 mph - N/A   Mostly Cloudy
8:23 AM 57.2 °F - 51.8 °F 82% 29.87 in 10.0 mi SSE 6.9 mph - N/A   Mostly Cloudy
8:44 AM 59.0 °F - 51.8 °F 77% 29.86 in 10.0 mi SSE 5.8 mph - N/A   Scattered Clouds
9:03 AM 60.8 °F - 51.8 °F 72% 29.85 in 10.0 mi SSE 5.8 mph - N/A   Scattered Clouds
9:23 AM 60.8 °F - 51.8 °F 72% 29.85 in 10.0 mi South 8.1 mph - N/A   Mostly Cloudy
9:44 AM 62.6 °F - 51.8 °F 68% 29.84 in 10.0 mi SSE 9.2 mph - N/A   Mostly Cloudy
10:04 AM 62.6 °F - 51.8 °F 68% 29.85 in 10.0 mi South 6.9 mph - N/A   Overcast
10:23 AM 60.8 °F - 51.8 °F 72% 29.85 in 10.0 mi South 6.9 mph - N/A   Overcast
10:43 AM 60.8 °F - 51.8 °F 72% 29.86 in 10.0 mi SSE 4.6 mph - N/A   Overcast
11:04 AM 59.0 °F - 53.6 °F 82% 29.86 in 7.0 mi SSE 3.5 mph - 0.01 in Rain Light Rain
11:23 AM 62.6 °F - 53.6 °F 72% 29.85 in 10.0 mi South 8.1 mph 25.3 mph 0.01 in   Mostly Cloudy
11:43 AM 60.8 °F - 53.6 °F 77% 29.84 in 10.0 mi SSE 5.8 mph - 0.01 in Rain Light Rain
12:04 PM 60.8 °F - 53.6 °F 77% 29.83 in 7.0 mi SSE 4.6 mph - N/A Rain Rain
12:24 PM 57.2 °F - 55.4 °F 94% 29.83 in 3.0 mi SSE 5.8 mph - 0.05 in Rain Rain
12:43 PM 57.2 °F - 55.4 °F 94% 29.82 in 2.0 mi South 4.6 mph - 0.11 in Rain Heavy Rain
1:03 PM 57.2 °F - 55.4 °F 94% 29.81 in 4.0 mi South 5.8 mph - N/A Rain Light Rain
1:24 PM 59.0 °F - 57.2 °F 94% 29.80 in 7.0 mi SSW 4.6 mph - N/A Rain Light Rain
1:45 PM 51.8 °F - 50.0 °F 94% 29.82 in 7.0 mi NW 15.0 mph 24.2 mph 0.03 in Rain Light Rain
2:03 PM 51.8 °F - 48.2 °F 88% 29.82 in 10.0 mi NW 12.7 mph 24.2 mph 0.01 in Rain Rain
2:23 PM 51.8 °F - 48.2 °F 88% 29.81 in 4.0 mi NW 13.8 mph 28.8 mph 0.06 in Rain Rain
2:44 PM 51.8 °F - 48.2 °F 88% 29.81 in 10.0 mi North 5.8 mph - 0.08 in Rain Light Rain
3:03 PM 51.8 °F - 48.2 °F 88% 29.80 in 7.0 mi Calm Calm - 0.01 in Rain Rain
3:23 PM 51.8 °F - 46.4 °F 82% 29.79 in 7.0 mi NNW 10.4 mph 17.3 mph 0.04 in Rain Rain
3:44 PM 50.0 °F - 48.2 °F 94% 29.79 in 5.0 mi WNW 8.1 mph - 0.10 in Rain Rain
4:03 PM 50.0 °F - 48.2 °F 94% 29.81 in 4.0 mi NW 18.4 mph 26.5 mph 0.04 in Rain Heavy Rain
4:23 PM 50.0 °F - 48.2 °F 94% 29.82 in 3.0 mi NW 15.0 mph 29.9 mph 0.17 in Rain Heavy Rain
4:44 PM 50.0 °F - 46.4 °F 87% 29.83 in 3.0 mi WNW 25.3 mph 39.1 mph 0.30 in Rain Heavy Rain
5:03 PM 50.0 °F - 46.4 °F 87% 29.82 in 2.5 mi NW 12.7 mph 32.2 mph 0.09 in Rain Heavy Rain
5:23 PM 50.0 °F - 46.4 °F 87% 29.78 in 5.0 mi North 4.6 mph - 0.20 in Rain Rain
5:43 PM 48.2 °F - 46.4 °F 93% 29.79 in 10.0 mi North 4.6 mph - 0.22 in Rain Rain
6:04 PM 48.2 °F - 46.4 °F 93% 29.77 in 10.0 mi Calm Calm - N/A Rain Light Rain
6:24 PM 50.0 °F - 46.4 °F 87% 29.77 in 10.0 mi WNW 12.7 mph 17.3 mph N/A   Scattered Clouds
6:45 PM 50.0 °F - 44.6 °F 82% 29.79 in 10.0 mi WNW 13.8 mph 20.7 mph 0.01 in   Clear
7:04 PM 50.0 °F - 44.6 °F 82% 29.82 in 10.0 mi West 15.0 mph 25.3 mph N/A   Clear
7:24 PM 50.0 °F - 44.6 °F 82% 29.84 in 10.0 mi West 13.8 mph 21.9 mph N/A   Scattered Clouds
7:44 PM 50.0 °F - 42.8 °F 76% 29.84 in 10.0 mi WNW 11.5 mph 19.6 mph N/A   Scattered Clouds
8:03 PM 50.0 °F - 42.8 °F 76% 29.84 in 10.0 mi WNW 10.4 mph 21.9 mph N/A   Mostly Cloudy
8:24 PM 50.0 °F - 42.8 °F 76% 29.85 in 10.0 mi WNW 12.7 mph 16.1 mph N/A   Mostly Cloudy
8:43 PM 50.0 °F - 42.8 °F 76% 29.87 in 10.0 mi NW 10.4 mph 16.1 mph N/A   Overcast
9:03 PM 50.0 °F - 42.8 °F 76% 29.87 in 10.0 mi NW 10.4 mph - N/A   Light Drizzle
9:24 PM 48.2 °F - 44.6 °F 87% 29.89 in 10.0 mi NNW 9.2 mph 16.1 mph N/A   Mostly Cloudy
9:43 PM 48.2 °F - 42.8 °F 82% 29.89 in 10.0 mi NNW 10.4 mph 21.9 mph N/A   Mostly Cloudy
10:05 PM 46.4 °F 39.0 °F 42.8 °F 87% 29.92 in 10.0 mi NW 19.6 mph 25.3 mph N/A   Overcast
10:23 PM 46.4 °F 41.5 °F 41.0 °F 81% 29.93 in 10.0 mi NNW 10.4 mph 20.7 mph N/A   Overcast
10:44 PM 44.6 °F 39.7 °F 41.0 °F 87% 29.94 in 10.0 mi NNW 9.2 mph 17.3 mph N/A   Overcast
11:25 PM 42.8 °F 35.4 °F 39.2 °F 87% 29.96 in 10.0 mi NNW 15.0 mph 19.6 mph N/A   Overcast
11:44 PM 42.8 °F 37.5 °F 37.4 °F 81% 29.96 in 10.0 mi NNW 9.2 mph 20.7 mph N/A   Overcast